Overview Statistics Trail Chart Weather Telemetry Raw packets
 

This is the latest recevied weather packets stored in our database for station/object IW1RID-3. If no packets are shown the sender has not sent any weather packets the latest 10 day(s).

<< 9 10 11 12 13 14 15 >>
Time Temp. Humidity Pressure Rain* Wind** Luminosity Snow
1788335060 23.89° C 67% 1076.9 hPa - - - -
1788333856 23.33° C 70% 1076.9 hPa - - - -
1788332651 21.67° C 75% 1076.7 hPa - - - -
1788331447 21.11° C 77% 1076.6 hPa - - - -
1788330242 20° C 79% 1076.4 hPa - - - -
1788329037 19.44° C 81% 1076.5 hPa - - - -
1788327833 19.44° C 81% 1076.5 hPa - - - -
1788326628 19.44° C 81% 1076.3 hPa - - - -
1788325423 19.44° C 81% 1076.4 hPa - - - -
1788324219 20° C 77% 1076.3 hPa - - - -
1788323014 20° C 80% 1076.4 hPa - - - -
1788321809 19.44° C 79% 1076.2 hPa - - - -
1788320605 19.44° C 81% 1076.2 hPa - - - -
1788319400 19.44° C 82% 1076.2 hPa - - - -
1788318196 19.44° C 81% 1076.2 hPa - - - -
1788316991 19.44° C 79% 1076.3 hPa - - - -
1788315787 19.44° C 80% 1076.2 hPa - - - -
1788314582 20.56° C 74% 1076.2 hPa - - - -
1788313377 20° C 76% 1076.2 hPa - - - -
1788312172 20° C 77% 1076 hPa - - - -
1788310968 20° C 79% 1076.2 hPa - - - -
1788309763 20.56° C 78% 1076.3 hPa - - - -
1788308558 20.56° C 77% 1076.3 hPa - - - -
1788307354 20.56° C 78% 1076.3 hPa - - - -
1788306149 21.11° C 77% 1076.2 hPa - - - -

* Rain since midnight (hover to see other rain measurements)
** Current wind speed in m/s (hover to see current wind gust speed)